This is the latest recevied weather packets stored in our database for station/object W0BJ. If no packets are shown the sender has not sent any weather packets the latest 10 day(s).
| Time | Temp. | Humidity | Pressure | Rain* | Wind** | Luminosity | Snow |
|---|---|---|---|---|---|---|---|
| 1777970299 | 17.78° C | 67% | 1008.4 hPa | 0 mm | - | - | - |
| 1777969944 | 17.78° C | 68% | 1008.1 hPa | 0 mm | - | - | - |
| 1777969398 | 17.78° C | 66% | 1008 hPa | 0 mm | - | - | - |
| 1777969344 | 17.78° C | 66% | 1008 hPa | 0 mm | - | - | - |
| 1777968744 | 17.78° C | 62% | 1008.1 hPa | 0 mm | - | - | - |
| 1777968497 | 17.78° C | 55% | 1008 hPa | 0 mm | - | - | - |
| 1777968144 | 17.78° C | 57% | 1008.3 hPa | 0 mm | - | - | - |
| 1777967598 | 17.78° C | 55% | 1008.1 hPa | 0 mm | - | - | - |
| 1777967543 | 17.78° C | 55% | 1008.1 hPa | 0 mm | - | - | - |
| 1777966943 | 17.78° C | 58% | 1008.2 hPa | 0 mm | - | - | - |
| 1777966699 | 17.78° C | 58% | 1008.3 hPa | 0 mm | - | - | - |
| 1777966345 | 17.78° C | 58% | 1008.5 hPa | 0 mm | - | - | - |
| 1777965798 | 17.78° C | 60% | 1008.7 hPa | 0 mm | - | - | - |
| 1777965744 | 17.78° C | 60% | 1008.8 hPa | 0 mm | - | - | - |
| 1777965144 | 18.33° C | 60% | 1009 hPa | 0 mm | - | - | - |
| 1777964897 | 18.33° C | 59% | 1009 hPa | 0 mm | - | - | - |
| 1777964544 | 18.33° C | 58% | 1009 hPa | 0 mm | - | - | - |
| 1777963998 | 18.33° C | 54% | 1009.2 hPa | 0 mm | - | - | - |
| 1777963944 | 18.33° C | 54% | 1009.1 hPa | 0 mm | - | - | - |
| 1777963343 | 19.44° C | 56% | 1009.3 hPa | 0 mm | - | - | - |
| 1777963099 | 19.44° C | 56% | 1009.3 hPa | 0 mm | - | - | - |
| 1777962745 | 20° C | 53% | 1008.9 hPa | 0 mm | - | - | - |
| 1777962198 | 20.56° C | 51% | 1008.9 hPa | 0 mm | - | - | - |
| 1777962144 | 21.11° C | 50% | 1009 hPa | 0 mm | - | - | - |
| 1777961544 | 21.11° C | 55% | 1007 hPa | 0 mm | - | - | - |
* Rain latest hour (hover to see other rain measurements)
** Current wind speed in m/s (hover to see current wind gust speed)